FIN6GT ENBR-EFHK

Flight info

Callsign FIN6GT
Flight time N/A
Altitude 35000
Route GOKAB DCT ROGED DCT KELAS DCT OTKIL Y368 LAKUT
Aircraft A321/M-SDE3FGHIRWY/LB1

Departure

Time 2026-04-27 19:08
Airport Bergen Airport, Flesland (ENBR)

Arrival

Time N/A
Airport Helsinki Vantaa Airport (EFHK)
Time Latitude Longitude Altitude Speed Heading
2026-04-27 18:28 60.28740 5.22897 176 ft 0 kts 81°
2026-04-27 18:31 60.28740 5.22896 176 ft 0 kts 81°
2026-04-27 18:37 60.28740 5.22895 176 ft 0 kts 81°
2026-04-27 18:43 60.28740 5.22894 176 ft 0 kts 81°
2026-04-27 18:49 60.28740 5.22893 176 ft 0 kts 81°
2026-04-27 18:57 60.28740 5.22892 176 ft 0 kts 81°
2026-04-27 18:59 60.28736 5.22845 164 ft 4 kts 81°
2026-04-27 18:59 60.28733 5.22793 175 ft 4 kts 81°
2026-04-27 19:00 60.28729 5.22738 174 ft 4 kts 81°
2026-04-27 19:00 60.28725 5.22684 174 ft 4 kts 81°
2026-04-27 19:00 60.28721 5.22632 174 ft 3 kts 81°
2026-04-27 19:00 60.28721 5.22627 174 ft 2 kts 81°
2026-04-27 19:02 60.28721 5.22633 174 ft 1 kts 81°
2026-04-27 19:03 60.28723 5.22655 174 ft 2 kts 82°
2026-04-27 19:03 60.28725 5.22692 174 ft 3 kts 85°
2026-04-27 19:03 60.28713 5.22728 174 ft 5 kts 144°
2026-04-27 19:03 60.28688 5.22717 172 ft 7 kts 229°
2026-04-27 19:04 60.28670 5.22558 172 ft 10 kts 261°
2026-04-27 19:04 60.28688 5.22424 170 ft 12 kts 290°
2026-04-27 19:04 60.28651 5.22365 167 ft 8 kts 162°
2026-04-27 19:04 60.28590 5.22388 166 ft 10 kts 170°
2026-04-27 19:05 60.28512 5.22418 164 ft 13 kts 169°
2026-04-27 19:05 60.28423 5.22444 161 ft 14 kts 171°
2026-04-27 19:05 60.28322 5.22479 159 ft 11 kts 169°
2026-04-27 19:05 60.28239 5.22503 156 ft 14 kts 169°
2026-04-27 19:06 60.28133 5.22541 153 ft 17 kts 171°
2026-04-27 19:06 60.28057 5.22448 152 ft 12 kts 256°
2026-04-27 19:06 60.28057 5.22289 153 ft 11 kts 292°
2026-04-27 19:06 60.28126 5.22223 153 ft 12 kts 348°
2026-04-27 19:07 60.28167 5.22209 153 ft 0 kts 351°
2026-04-27 19:07 60.28183 5.22203 153 ft 20 kts 351°
2026-04-27 19:07 60.28590 5.22067 160 ft 94 kts 351°
2026-04-27 19:07 60.29436 5.21780 203 ft 146 kts 350°
2026-04-27 19:08 60.30421 5.21472 772 ft 153 kts 349°
2026-04-27 19:08 60.31513 5.21094 1332 ft 168 kts 350°
2026-04-27 19:08 60.32756 5.20669 1725 ft 190 kts 350°
2026-04-27 19:08 60.34116 5.20210 2090 ft 210 kts 351°
2026-04-27 19:09 60.35593 5.19712 2559 ft 224 kts 351°
2026-04-27 19:09 60.37186 5.19172 2893 ft 243 kts 351°
2026-04-27 19:09 60.38911 5.18584 3461 ft 257 kts 351°
2026-04-27 19:09 60.40688 5.17981 4276 ft 261 kts 351°
2026-04-27 19:10 60.42486 5.17373 5119 ft 263 kts 351°
2026-04-27 19:10 60.44308 5.16761 5783 ft 267 kts 351°
2026-04-27 19:10 60.46152 5.16346 5956 ft 266 kts
2026-04-27 19:10 60.47349 5.16830 5980 ft 265 kts 21°
2026-04-27 19:11 60.49271 5.19824 5975 ft 265 kts 56°
2026-04-27 19:11 60.49963 5.23256 5982 ft 266 kts 79°
2026-04-27 19:11 60.50142 5.26991 5972 ft 267 kts 94°
2026-04-27 19:11 60.49664 5.30609 5975 ft 268 kts 117°
2026-04-27 19:12 60.48496 5.33537 5977 ft 270 kts 142°
2026-04-27 19:12 60.46827 5.35246 5972 ft 271 kts 165°
2026-04-27 19:12 60.44990 5.36127 5977 ft 272 kts 167°
2026-04-27 19:12 60.43149 5.36991 5975 ft 271 kts 165°
2026-04-27 19:13 60.41406 5.38419 5981 ft 271 kts 148°
2026-04-27 19:13 60.39942 5.40813 6209 ft 272 kts 130°
2026-04-27 19:13 60.38871 5.43966 7004 ft 274 kts 115°
2026-04-27 19:13 60.38266 5.47614 7732 ft 276 kts 98°
2026-04-27 19:14 60.38201 5.51511 8451 ft 278 kts 82°
2026-04-27 19:14 60.38440 5.55400 9199 ft 281 kts 81°
2026-04-27 19:14 60.38676 5.59346 9968 ft 284 kts 81°
2026-04-27 19:14 60.38912 5.63348 10576 ft 294 kts 81°
2026-04-27 19:15 60.39162 5.67603 10737 ft 316 kts 82°
2026-04-27 19:15 60.39424 5.72124 11161 ft 328 kts 82°
2026-04-27 19:15 60.39686 5.76747 11794 ft 333 kts 82°
2026-04-27 19:15 60.39944 5.81365 12458 ft 336 kts 82°
2026-04-27 19:16 60.40208 5.86098 13143 ft 340 kts 82°
2026-04-27 19:16 60.40298 5.87706 13384 ft 341 kts 82°
2026-04-27 19:16 60.40749 5.95706 14471 ft 347 kts 81°
2026-04-27 19:16 60.41023 6.00577 15062 ft 350 kts 81°
2026-04-27 19:17 60.41296 6.05498 15662 ft 353 kts 81°
2026-04-27 19:17 60.41565 6.10473 16263 ft 357 kts 81°
2026-04-27 19:17 60.41833 6.15486 16882 ft 360 kts 81°
2026-04-27 19:17 60.42106 6.20538 17485 ft 363 kts 81°
2026-04-27 19:18 60.42289 6.23912 17875 ft 366 kts 81°
2026-04-27 19:18 60.42567 6.29062 18459 ft 369 kts 81°
2026-04-27 19:18 60.42838 6.34258 18984 ft 373 kts 81°
2026-04-27 19:18 60.43107 6.39514 19485 ft 376 kts 81°
2026-04-27 19:19 60.43371 6.44793 19992 ft 379 kts 81°
2026-04-27 19:19 60.43600 6.50132 20512 ft 382 kts 82°
2026-04-27 19:19 60.43800 6.55521 21041 ft 385 kts 82°
2026-04-27 19:19 60.43984 6.60958 21559 ft 389 kts 82°
2026-04-27 19:20 60.44162 6.66441 22079 ft 392 kts 82°
2026-04-27 19:20 60.44341 6.71969 22592 ft 395 kts 82°
2026-04-27 19:20 60.44522 6.77539 23113 ft 398 kts 82°
2026-04-27 19:20 60.44705 6.83160 23630 ft 401 kts 82°
2026-04-27 19:21 60.44890 6.88822 24076 ft 404 kts 82°
2026-04-27 19:21 60.45075 6.94528 24514 ft 407 kts 82°
2026-04-27 19:21 60.45257 7.00251 24925 ft 409 kts 82°
2026-04-27 19:21 60.45438 7.06026 25358 ft 412 kts 82°
2026-04-27 19:22 60.45618 7.11843 25777 ft 414 kts 82°
2026-04-27 19:22 60.45798 7.17676 26185 ft 416 kts 82°
2026-04-27 19:22 60.45978 7.23555 26593 ft 418 kts 82°
2026-04-27 19:22 60.46158 7.29445 26946 ft 421 kts 81°
2026-04-27 19:23 60.46337 7.35388 27337 ft 423 kts 82°
2026-04-27 19:23 60.46510 7.41348 27719 ft 425 kts 82°
2026-04-27 19:23 60.46677 7.47361 28092 ft 428 kts 82°
2026-04-27 19:23 60.46843 7.53316 28453 ft 430 kts 82°
2026-04-27 19:24 60.47012 7.59394 28824 ft 432 kts 82°
2026-04-27 19:24 60.47178 7.65487 29188 ft 435 kts 82°
2026-04-27 19:24 60.47340 7.71634 29554 ft 437 kts 82°
2026-04-27 19:24 60.47500 7.77805 29900 ft 440 kts 82°
2026-04-27 19:25 60.47661 7.84013 30243 ft 442 kts 82°
2026-04-27 19:25 60.47819 7.90258 30569 ft 444 kts 82°
2026-04-27 19:25 60.47975 7.96537 30852 ft 447 kts 82°
2026-04-27 19:25 60.48128 8.02843 31131 ft 449 kts 82°
2026-04-27 19:26 60.48281 8.09183 31415 ft 451 kts 82°
2026-04-27 19:26 60.48429 8.15559 31713 ft 453 kts 82°
2026-04-27 19:26 60.48570 8.21939 32108 ft 452 kts 82°
2026-04-27 19:26 60.48708 8.28299 32473 ft 452 kts 82°
2026-04-27 19:27 60.48843 8.34575 32839 ft 451 kts 82°
2026-04-27 19:27 60.48981 8.41013 33225 ft 451 kts 82°
2026-04-27 19:27 60.49112 8.47282 33612 ft 450 kts 82°
2026-04-27 19:27 60.49243 8.53622 33973 ft 450 kts 82°
2026-04-27 19:28 60.49370 8.59965 34308 ft 450 kts 82°
2026-04-27 19:28 60.49493 8.66295 34611 ft 449 kts 82°
2026-04-27 19:28 60.49613 8.72704 34893 ft 449 kts 82°
2026-04-27 19:28 60.49728 8.78964 35140 ft 450 kts 82°
2026-04-27 19:29 60.49844 8.85308 35344 ft 451 kts 82°
2026-04-27 19:29 60.50062 8.97880 35400 ft 441 kts 82°
2026-04-27 19:30 60.50269 9.10305 35397 ft 440 kts 82°
2026-04-27 19:30 60.50465 9.22719 35397 ft 440 kts 82°
2026-04-27 19:31 60.50641 9.35122 35383 ft 440 kts 83°
2026-04-27 19:31 60.50811 9.47546 35401 ft 440 kts 83°
2026-04-27 19:32 60.50971 9.59989 35402 ft 441 kts 83°
2026-04-27 19:32 60.51123 9.72435 35408 ft 441 kts 83°
2026-04-27 19:33 60.51265 9.84908 35412 ft 442 kts 83°
2026-04-27 19:33 60.51381 9.97394 35405 ft 442 kts 83°
2026-04-27 19:34 60.51488 10.09885 35412 ft 443 kts 83°
2026-04-27 19:34 60.51593 10.22389 35414 ft 444 kts 83°
2026-04-27 19:35 60.51681 10.34911 35418 ft 444 kts 83°
2026-04-27 19:35 60.51757 10.47475 35425 ft 444 kts 83°
2026-04-27 19:36 60.51828 10.60027 35424 ft 445 kts 84°
2026-04-27 19:36 60.51884 10.72528 35425 ft 446 kts 84°
2026-04-27 19:37 60.51921 10.85118 35417 ft 446 kts 84°
2026-04-27 19:37 60.51950 10.97702 35413 ft 446 kts 84°
2026-04-27 19:38 60.51970 11.10306 35411 ft 447 kts 84°
2026-04-27 19:38 60.51980 11.22925 35412 ft 447 kts 84°
2026-04-27 19:39 60.51974 11.35565 35417 ft 448 kts 84°
2026-04-27 19:39 60.51960 11.48221 35419 ft 449 kts 84°
2026-04-27 19:40 60.51925 11.60893 35421 ft 449 kts 84°
2026-04-27 19:40 60.51881 11.73567 35419 ft 449 kts 84°
2026-04-27 19:41 60.51826 11.86258 35419 ft 450 kts 85°
2026-04-27 19:41 60.51761 11.98960 35417 ft 450 kts 85°
2026-04-27 19:42 60.51687 12.11670 35417 ft 450 kts 85°
2026-04-27 19:42 60.51603 12.24389 35416 ft 451 kts 85°
2026-04-27 19:43 60.51506 12.37119 35419 ft 451 kts 85°
2026-04-27 19:43 60.51393 12.49869 35414 ft 451 kts 85°
2026-04-27 19:44 60.51270 12.62611 35419 ft 451 kts 84°
2026-04-27 19:44 60.51393 12.75236 35420 ft 449 kts 81°
2026-04-27 19:45 60.51686 12.87893 35417 ft 449 kts 81°
2026-04-27 19:45 60.51956 13.00563 35419 ft 450 kts 82°
2026-04-27 19:46 60.52145 13.13278 35418 ft 451 kts 82°
2026-04-27 19:46 60.52285 13.26014 35416 ft 451 kts 83°
2026-04-27 19:47 60.52429 13.38747 35418 ft 451 kts 82°
2026-04-27 19:47 60.52581 13.51485 35415 ft 451 kts 82°
2026-04-27 19:48 60.52726 13.64218 35413 ft 451 kts 82°
2026-04-27 19:48 60.52863 13.76967 35412 ft 451 kts 83°
2026-04-27 19:49 60.52971 13.89713 35416 ft 452 kts 83°
2026-04-27 19:49 60.53060 14.02477 35418 ft 452 kts 83°
2026-04-27 19:50 60.53143 14.15231 35416 ft 452 kts 83°
2026-04-27 19:50 60.53220 14.27889 35416 ft 452 kts 83°
2026-04-27 19:51 60.53288 14.40649 35411 ft 452 kts 83°
2026-04-27 19:51 60.53335 14.53400 35412 ft 452 kts 83°
2026-04-27 19:52 60.53370 14.66206 35405 ft 451 kts 83°
2026-04-27 19:52 60.53391 14.78983 35404 ft 451 kts 83°
2026-04-27 19:53 60.53409 14.98024 35383 ft 451 kts 83°
2026-04-27 19:53 60.53402 15.10767 35382 ft 452 kts 83°
2026-04-27 19:54 60.53389 15.23526 35367 ft 452 kts 83°
2026-04-27 19:54 60.53358 15.36283 35359 ft 452 kts 84°
2026-04-27 19:55 60.53315 15.49029 35356 ft 452 kts 84°
2026-04-27 19:55 60.53264 15.61787 35357 ft 452 kts 84°
2026-04-27 19:56 60.53196 15.74541 35360 ft 452 kts 84°
2026-04-27 19:56 60.53119 15.87297 35364 ft 451 kts 84°
2026-04-27 19:57 60.53037 16.00063 35366 ft 451 kts 84°
2026-04-27 19:57 60.52935 16.12799 35357 ft 452 kts 84°
2026-04-27 19:58 60.52817 16.25554 35358 ft 452 kts 84°
2026-04-27 19:58 60.52691 16.38316 35355 ft 452 kts 84°
2026-04-27 19:59 60.52549 16.51066 35351 ft 452 kts 84°
2026-04-27 19:59 60.52399 16.63837 35350 ft 452 kts 84°
2026-04-27 20:00 60.52266 16.74434 35344 ft 452 kts 84°
2026-04-27 20:00 60.52096 16.87162 35340 ft 452 kts 84°
2026-04-27 20:01 60.51907 16.99967 35338 ft 453 kts 85°
2026-04-27 20:01 60.51708 17.12748 35336 ft 453 kts 85°
2026-04-27 20:02 60.51504 17.25533 35332 ft 453 kts 85°
2026-04-27 20:02 60.51285 17.38300 35330 ft 453 kts 85°
2026-04-27 20:03 60.51045 17.51004 35330 ft 453 kts 85°
2026-04-27 20:03 60.50795 17.63866 35330 ft 453 kts 85°
2026-04-27 20:04 60.50538 17.76553 35325 ft 453 kts 85°
2026-04-27 20:04 60.50261 17.89323 35327 ft 453 kts 85°
2026-04-27 20:05 60.49976 18.02088 35332 ft 453 kts 85°
2026-04-27 20:05 60.49688 18.14853 35333 ft 452 kts 85°
2026-04-27 20:06 60.49387 18.27587 35333 ft 452 kts 86°
2026-04-27 20:06 60.49066 18.40313 35330 ft 452 kts 86°
2026-04-27 20:07 60.48730 18.53053 35331 ft 451 kts 86°
2026-04-27 20:07 60.48389 18.65761 35331 ft 451 kts 86°
2026-04-27 20:08 60.48033 18.78470 35327 ft 451 kts 86°
2026-04-27 20:08 60.47667 18.91167 35324 ft 451 kts 86°
2026-04-27 20:09 60.47290 19.03911 35323 ft 452 kts 86°
2026-04-27 20:09 60.46894 19.16630 35322 ft 452 kts 87°
2026-04-27 20:10 60.46779 19.29308 35316 ft 448 kts 82°
2026-04-27 20:10 60.47013 19.41889 35316 ft 446 kts 81°
2026-04-27 20:11 60.47242 19.54456 35314 ft 447 kts 82°
2026-04-27 20:11 60.47361 19.66969 35306 ft 447 kts 83°
2026-04-27 20:12 60.47427 19.79574 35305 ft 447 kts 83°
2026-04-27 20:12 60.47491 19.92160 35300 ft 447 kts 83°
2026-04-27 20:13 60.47554 20.04746 35298 ft 447 kts 83°
2026-04-27 20:13 60.47607 20.17341 35299 ft 446 kts 83°
2026-04-27 20:14 60.47646 20.29934 35292 ft 446 kts 84°
2026-04-27 20:14 60.47675 20.42537 35286 ft 446 kts 84°
2026-04-27 20:15 60.47695 20.55118 35281 ft 447 kts 84°
2026-04-27 20:15 60.47700 20.67729 35275 ft 447 kts 84°
2026-04-27 20:16 60.47687 20.80313 35269 ft 447 kts 84°
2026-04-27 20:16 60.47663 20.92913 35268 ft 447 kts 84°
2026-04-27 20:17 60.47627 21.05516 35265 ft 447 kts 85°
2026-04-27 20:17 60.47596 21.15992 35262 ft 447 kts 85°
2026-04-27 20:18 60.47538 21.30650 35257 ft 447 kts 85°
2026-04-27 20:18 60.47470 21.43253 35250 ft 447 kts 85°
2026-04-27 20:19 60.47391 21.55868 35243 ft 447 kts 85°
2026-04-27 20:19 60.47301 21.68502 35217 ft 448 kts 85°
2026-04-27 20:20 60.46491 21.81119 34976 ft 454 kts 97°
2026-04-27 20:20 60.45817 21.87357 34789 ft 454 kts 97°
2026-04-27 20:20 60.45128 21.93618 34321 ft 456 kts 97°
2026-04-27 20:21 60.44430 21.99891 33689 ft 457 kts 97°
2026-04-27 20:21 60.43728 22.06167 33057 ft 457 kts 97°
2026-04-27 20:21 60.43022 22.12444 32438 ft 457 kts 97°
2026-04-27 20:21 60.42315 22.18722 31837 ft 457 kts 97°
2026-04-27 20:22 60.41613 22.24979 31248 ft 456 kts 97°
2026-04-27 20:22 60.40909 22.31233 30673 ft 455 kts 97°
2026-04-27 20:22 60.40202 22.37470 30079 ft 454 kts 97°
2026-04-27 20:22 60.39494 22.43677 29388 ft 452 kts 97°
2026-04-27 20:23 60.38786 22.49854 28700 ft 450 kts 97°
2026-04-27 20:23 60.38086 22.55924 28050 ft 447 kts 97°
2026-04-27 20:23 60.37385 22.61981 27386 ft 438 kts 98°
2026-04-27 20:23 60.36687 22.67976 26738 ft 428 kts 98°
2026-04-27 20:24 60.36019 22.73692 26120 ft 417 kts 98°
2026-04-27 20:24 60.35361 22.79263 25498 ft 401 kts 98°
2026-04-27 20:24 60.34716 22.84737 24917 ft 401 kts 98°
2026-04-27 20:24 60.34075 22.90213 24333 ft 402 kts 98°
2026-04-27 20:25 60.33431 22.95706 23751 ft 402 kts 98°
2026-04-27 20:25 60.32775 23.01258 23052 ft 401 kts 99°
2026-04-27 20:25 60.32122 23.06735 22367 ft 401 kts 99°
2026-04-27 20:25 60.31468 23.12198 21700 ft 401 kts 99°
2026-04-27 20:26 60.30813 23.17659 21039 ft 400 kts 99°
2026-04-27 20:26 60.30165 23.23031 20400 ft 399 kts 99°
2026-04-27 20:26 60.29505 23.28467 19769 ft 399 kts 100°
2026-04-27 20:26 60.28844 23.33891 19151 ft 398 kts 100°
2026-04-27 20:27 60.28192 23.39220 18529 ft 382 kts 100°
2026-04-27 20:27 60.27565 23.44282 17856 ft 363 kts 100°
2026-04-27 20:27 60.26964 23.49106 17177 ft 348 kts 100°
2026-04-27 20:27 60.26383 23.53788 16520 ft 342 kts 99°
2026-04-27 20:28 60.25816 23.58412 15865 ft 338 kts 99°
2026-04-27 20:28 60.25256 23.62997 15331 ft 336 kts 99°
2026-04-27 20:28 60.24699 23.67541 14812 ft 333 kts 99°
2026-04-27 20:28 60.24324 23.70585 14499 ft 332 kts 99°
2026-04-27 20:29 60.23584 23.76528 13919 ft 329 kts 99°
2026-04-27 20:29 60.23021 23.81000 13477 ft 330 kts 99°
2026-04-27 20:29 60.22458 23.85442 13030 ft 326 kts 99°
2026-04-27 20:29 60.21898 23.89843 12580 ft 323 kts 100°
2026-04-27 20:30 60.21343 23.94201 12145 ft 320 kts 100°
2026-04-27 20:30 60.20793 23.98519 11705 ft 318 kts 100°
2026-04-27 20:30 60.20247 24.02797 11288 ft 315 kts 100°
2026-04-27 20:30 60.19702 24.07052 10861 ft 312 kts 100°
2026-04-27 20:31 60.19169 24.11199 10442 ft 302 kts 100°
2026-04-27 20:31 60.18651 24.15224 10036 ft 294 kts 100°
2026-04-27 20:31 60.18146 24.19143 9583 ft 286 kts 100°
2026-04-27 20:31 60.17649 24.22978 9120 ft 281 kts 99°
2026-04-27 20:32 60.17159 24.26754 8691 ft 278 kts 99°
2026-04-27 20:32 60.16672 24.30502 8262 ft 276 kts 99°
2026-04-27 20:32 60.16188 24.34218 7830 ft 275 kts 99°
2026-04-27 20:32 60.15705 24.37914 7401 ft 271 kts 99°
2026-04-27 20:33 60.15232 24.41516 6979 ft 261 kts 99°
2026-04-27 20:33 60.14779 24.44958 6564 ft 249 kts 99°
2026-04-27 20:33 60.14412 24.48251 6133 ft 234 kts 88°
2026-04-27 20:33 60.14490 24.51422 5730 ft 224 kts 72°
2026-04-27 20:34 60.15001 24.54314 5308 ft 217 kts 56°
2026-04-27 20:34 60.15865 24.56743 4889 ft 212 kts 43°
2026-04-27 20:34 60.16876 24.58904 4456 ft 212 kts 42°
2026-04-27 20:34 60.17877 24.61071 4027 ft 211 kts 42°
2026-04-27 20:35 60.18871 24.63231 3595 ft 210 kts 42°
2026-04-27 20:35 60.19859 24.65379 3172 ft 207 kts 42°
2026-04-27 20:35 60.20795 24.67433 2722 ft 190 kts 41°
2026-04-27 20:35 60.21642 24.69301 2337 ft 170 kts 40°
2026-04-27 20:36 60.22388 24.70934 2339 ft 147 kts 39°
2026-04-27 20:36 60.23035 24.72347 2335 ft 131 kts 38°
2026-04-27 20:36 60.23638 24.73648 2295 ft 121 kts 38°
2026-04-27 20:36 60.24186 24.74846 2153 ft 117 kts 37°
2026-04-27 20:37 60.24765 24.76067 2097 ft 122 kts 37°
2026-04-27 20:37 60.24859 24.76261 2090 ft 123 kts 37°